Regional Weather Roundup
Issued by NWS Kansas City/Pleasant Hill, MO

Home | Current Version | Previous Version | Graphics & Text | Print | Product List | Glossary Off
Versions: 1 2 3 4 5 6 7 8 9 10 11 12 13 14 15 16 17 18 19 20 21 22 23 24 25 26 27 28 29 30 31 32 33 34 35 36 37 38 39 40 41 42 43 44 45 46 47 48 49 50

550
ASUS43 KEAX 191710
RWREAX

WEATHER ROUNDUP FOR EASTERN KANSAS AND NORTHWEST MISSOURI
NATIONAL WEATHER SERVICE KANSAS CITY/PLEASANT HILL MO
1200 PM CDT SAT AUG 19 2017

KSZ040-057-103>105-MOZ028-029-037-043-191800-
...KANSAS CITY METROPOLITAN AREA...

CITY           SKY/WX    TMP DP  RH WIND       PRES   REMARKS
K.C. INTL      SUNNY     86  70  58 CALM      29.99S HX  90
K.C. DOWNTOWN  SUNNY     88  68  51 VRB3      29.97S HX  91
LEES SUMMIT    SUNNY     86  70  58 VRB3      29.99S HX  90
OLATHE - IXD   SUNNY     86  69  56 E5        30.00R HX  90
OLATHE - OJC   SUNNY     85  69  58 CALM      29.99S
LAWRENCE       SUNNY     87  69  54 N3        29.98S HX  91

$$

MOZ001>008-011>017-020>025-030>033-038>040-044>046-053-054-191800-
...NORTHERN AND CENTRAL MISSOURI...

CITY           SKY/WX    TMP DP  RH WIND       PRES   REMARKS
ST. JOSEPH     SUNNY     84  68  58 CALM      29.98S
WARRENSBURG    SUNNY     82  68  61 CALM      29.99R
WHITEMAN AFB   SUNNY     83  73  71 CALM      29.97S HX  90
CLINTON        SUNNY     86  73  66 MISG      29.98F HX  93
SEDALIA        SUNNY     87  74  64 CALM      29.99F HX  95
WARSAW         NOT AVBL
CHILLICOTHE      N/A     85  69  58 CALM      29.98S
KIRKSVILLE     SUNNY     87  66  49 VRB6      29.97S

$$

MOZ041-047>049-056>058-063>065-088>090-097-191800-
...EASTERN AND SOUTHERN MISSOURI...

CITY           SKY/WX    TMP DP  RH WIND       PRES   REMARKS
ST. LOUIS INTL MOSUNNY   86  68  54 SW5       29.97S
SPIRIT OF STL  MOSUNNY   84  71  65 CALM      29.96S
COLUMBIA       SUNNY     85  70  60 CALM      29.98S
JEFFERSON CITY SUNNY     83  75  77 S3        29.96F HX  90
ROLLA          SUNNY     84  73  69 VRB3      30.01S HX  90
OSAGE BEACH    SUNNY     84  72  67 CALM      29.99F
SPRINGFIELD    SUNNY     86  75  69 W12       30.01R HX  95
BRANSON        MOSUNNY   84  73  70 NW9       30.04S HX  91
JOPLIN         MOSUNNY   87  79  76 SW8       30.00F HX 101
WEST PLAINS    SUNNY     89  71  55 W9        30.02F HX  95

$$

IAZ060-094-KSZ022-034>040-054-083-096-NEZ052-066-093-191800-
...KANSAS...SOUTHEAST NEBRASKA AND IOWA...

CITY           SKY/WX    TMP DP  RH WIND       PRES   REMARKS
TOPEKA         SUNNY     86  71  60 SE5       29.97F HX  91
MANHATTAN      SUNNY     85  71  63 E7        29.97F HX  90
EMPORIA        SUNNY     85  71  63 VRB7      29.98S HX  90
CHANUTE        SUNNY     88  76  67 CALM      29.98S HX  99
WICHITA        MOSUNNY   91  74  57 SE7       29.96F HX 100
OMAHA          SUNNY     80  62  54 CALM      29.98S
LINCOLN        SUNNY     80  59  48 E6        29.99S
FALLS CITY     SUNNY     81  64  56 MISG      29.98S
LAMONI         SUNNY     83  57  41 W10       29.98R
DES MOINES     PTSUNNY   77  64  64 NE3       29.96S

$$





USA.gov is the U.S. government's official web portal to all federal, state and local government web resources and services.